Content
SEND FEEDBACK

Daily
Averages
Monthly
Summary
United States of America

CHESTERFIELD, MISSOURI


Home > North America > United States > Missouri
Elevation: 559 feet     Latitude: 38 41N     Longitude: 090 31W

WEATHER
 
SELECT A DAY
Number of Records: 203,322;   Date Range: 1/1/95 - 7/20/14
 
SHARE

PRINT THIS DATA

[ ← Previous Day ]
WEATHER ALMANAC - FEBRUARY 6, 2013
[ Next Day → ]
[ °C ]   °F
Weather ElementAverageHighLow
Temperature41.2 °F52 °F (3:51 pm)28.9 °F (5:51 am)
Dewpoint28 °F30.9 °F (5:51 pm)24.1 °F (5:51 am)
Humidity61.7 %82 % (1:51 am)41 % (2:51 pm)
Barometer30.17 in30.27 in (10:51 am)30.08 in (11:51 pm)
Wind Speed8.1 mph15 mph (7:51 pm)
Weather ElementAverage
Visibility9.3 mi
Wind DirectionESE (104.8 °)

Weather ElementTotal
Precipitation---
Heating Degree Days24.6 (Base 65)
Averaged from 23 records on February 6, 2013
WEATHER CONDITIONS BREAKOUT
WIND DIRECTION BREAKOUT
WEATHER BY HOUR - FEBRUARY 6, 2013
[ °C ]   °F
Local TimeTemperatureDewpointHumidityBarometerVisibilityWind DirectionWind SpeedGust SpeedPrecipitationEventsConditions
1:51 AM30.0 °F25.0 °F82 %30.18 in10.0 miNorth (10°)3.5 mphClear
2:51 AM32.0 °F27.0 °F82 %30.17 in9.0 miNE (40°)5.8 mphClear
3:51 AM30.9 °F25.0 °F79 %30.18 in9.0 miCalmClear
4:51 AM30.0 °F25.0 °F82 %30.20 in9.0 miCalmClear
5:51 AM28.9 °F24.1 °F82 %30.21 in8.0 miCalmClear
6:51 AM30.0 °F25.0 °F82 %30.22 in8.0 miSSE (160°)5.8 mphPartly Cloudy
7:51 AM32.0 °F27.0 °F82 %30.22 in7.0 miESE (120°)3.5 mphClear
8:51 AM39.0 °F30.0 °F70 %30.24 in8.0 miSE (140°)6.9 mphPartly Cloudy
9:51 AM41.0 °F28.9 °F62 %30.26 in8.0 miSE (130°)10.4 mphClear
10:51 AM44.1 °F28.0 °F53 %30.27 in9.0 miSSE (150°)11.5 mphClear
11:51 AM46.9 °F28.0 °F48 %30.25 in10.0 miSSE (160°)8.1 mphPartly Cloudy
12:51 PM48.9 °F28.0 °F44 %30.20 in10.0 miVariable4.6 mphClear
1:51 PM50.0 °F28.0 °F43 %30.17 in10.0 miESE (120°)12.7 mphPartly Cloudy
2:51 PM51.1 °F28.0 °F41 %30.14 in10.0 miSE (130°)13.8 mphScattered Clouds
3:51 PM52.0 °F28.9 °F41 %30.14 in10.0 miSSE (160°)11.5 mphScattered Clouds
4:51 PM50.0 °F28.9 °F44 %30.13 in10.0 miSSE (150°)9.2 mphScattered Clouds
5:51 PM48.0 °F30.9 °F52 %30.13 in10.0 miSE (130°)12.7 mphMostly Cloudy
6:51 PM45.0 °F30.0 °F56 %30.12 in10.0 miESE (120°)12.7 mphMostly Cloudy
7:51 PM46.0 °F28.9 °F51 %30.10 in10.0 miSE (140°)15.0 mphMostly Cloudy
8:51 PM45.0 °F30.0 °F56 %30.10 in10.0 miSSE (150°)13.8 mphMostly Cloudy
9:51 PM44.1 °F30.0 °F58 %30.10 in10.0 miSE (140°)9.2 mphMostly Cloudy
10:51 PM43.0 °F30.0 °F60 %30.09 in10.0 miSE (140°)9.2 mphMostly Cloudy
11:51 PM39.9 °F30.0 °F68 %30.08 in10.0 miESE (120°)5.8 mphMostly Cloudy
Hourly data recorded from KSTL, located miles away from Chesterfield, Missouri







STORIES FROM OUR PARTNERS